,,Stat5,,Stat1,,Stat2,,Stat3,,Stat4,,Wind1,,Wind1,
time,status,PA1M_AVG,status,PR1M_SUM,status,RH1M_AVG,status,SR1M_AVG,status,TA1M_AVG,status,W1dAve1m,status,W1sAve1m,
2001-08-03, 00:00:00,VALID,917.595,VALID,0,VALID,90.5166,VALID,0,VALID,17.7962,VALID,66,VALID,0.409455,
2001-08-03, 00:01:00,VALID,917.566,VALID,0,VALID,90.6578,VALID,0,VALID,17.7609,VALID,93,VALID,0.554482,
2001-08-03, 00:02:00,VALID,917.555,VALID,0,VALID,90.7748,VALID,0,VALID,17.751,VALID,108,VALID,0.650905,
2001-08-03, 00:03:00,VALID,917.563,VALID,0,VALID,90.7671,VALID,0,VALID,17.751,VALID,105,VALID,0.393581,
2001-08-03, 00:04:00,VALID,917.558,VALID,0,VALID,90.9007,VALID,0,VALID,17.7512,VALID,70,VALID,0.286106,
2001-08-03, 00:05:00,VALID,917.558,VALID,0,VALID,90.7175,VALID,0,VALID,17.6829,VALID,60,VALID,0.811121,
2001-08-03, 00:06:00,VALID,917.541,VALID,0,VALID,91.2287,VALID,0,VALID,17.6089,VALID,70,VALID,0.890008,
2001-08-03, 00:07:00,VALID,917.543,VALID,0,VALID,91.5098,VALID,-0.0169808,VALID,17.5768,VALID,72,VALID,0.38125,
2001-08-03, 00:08:00,VALID,917.531,VALID,0,VALID,91.6738,VALID,0,VALID,17.5476,VALID,85,VALID,0.234809,
2001-08-03, 00:09:00,VALID,917.541,VALID,0,VALID,91.6522,VALID,0.0169808,VALID,17.5282,VALID,108,VALID,0.0502534,
2001-08-03, 00:10:00,VALID,917.554,VALID,0,VALID,91.492,VALID,-0.0169808,VALID,17.5286,VALID,256,VALID,0.454127,
2001-08-03, 00:11:00,VALID,917.539,VALID,0,VALID,90.7977,VALID,-0.0169808,VALID,17.6188,VALID,338,VALID,0.518298,
2001-08-03, 00:12:00,VALID,917.497,VALID,0,VALID,89.6774,VALID,0,VALID,17.7576,VALID,81,VALID,0.51671,
2001-08-03, 00:13:00,VALID,917.497,VALID,0,VALID,89.2603,VALID,-0.0169808,VALID,17.78,VALID,84,VALID,0.576122,
2001-08-03, 00:14:00,VALID,917.482,VALID,0,VALID,88.8928,VALID,0,VALID,17.8702,VALID,62,VALID,0.365039,
2001-08-03, 00:15:00,VALID,917.482,VALID,0,VALID,88.8724,VALID,-0.0169808,VALID,17.9482,VALID,44,VALID,0.0435855,
2001-08-03, 00:16:00,VALID,917.472,VALID,0,VALID,88.6283,VALID,0,VALID,17.9477,VALID,44,VALID,0.130962,
2001-08-03, 00:17:00,VALID,917.467,VALID,0,VALID,89.1357,VALID,0.0169808,VALID,17.9256,VALID,40,VALID,0.476357,
2001-08-03, 00:18:00,VALID,917.476,VALID,0,VALID,89.4459,VALID,0,VALID,17.8677,VALID,356,VALID,0.22574,
2001-08-03, 00:19:00,VALID,917.485,VALID,0,VALID,89.3887,VALID,0,VALID,17.7962,VALID,278,VALID,0.536595,
2001-08-03, 00:20:00,VALID,917.473,VALID,0,VALID,89.2374,VALID,0,VALID,17.8644,VALID,268,VALID,0.402138,
2001-08-03, 00:21:00,VALID,917.482,VALID,0,VALID,88.5202,VALID,-0.0509425,VALID,17.9578,VALID,253,VALID,0.622596,
2001-08-03, 00:22:00,VALID,917.491,VALID,0,VALID,88.3104,VALID,-0.0169808,VALID,18.0413,VALID,251,VALID,0.0732422,
2001-08-03, 00:23:00,VALID,917.475,VALID,0,VALID,88.716,VALID,-0.0169808,VALID,18.0775,VALID,251,VALID,0.130757,
2001-08-03, 00:24:00,VALID,917.442,VALID,0,VALID,88.8114,VALID,-0.0169808,VALID,18.0642,VALID,40,VALID,1.03988,
2001-08-03, 00:25:00,VALID,917.432,VALID,0,VALID,89.0479,VALID,-0.0169808,VALID,17.9482,VALID,47,VALID,0.90625,
2001-08-03, 00:26:00,VALID,917.424,VALID,0,VALID,89.8541,VALID,-0.0169808,VALID,17.8257,VALID,13,VALID,0.386308,
2001-08-03, 00:27:00,VALID,917.445,VALID,0,VALID,90.1809,VALID,0,VALID,17.7643,VALID,4,VALID,0.0916941,
2001-08-03, 00:28:00,VALID,917.426,VALID,0,VALID,90.0856,VALID,-0.0339617,VALID,17.7872,VALID,353,VALID,0.198808,
2001-08-03, 00:29:00,VALID,917.42,VALID,0,VALID,90.2623,VALID,0,VALID,17.8674,VALID,276,VALID,0.589744,
2001-08-03, 00:30:00,VALID,917.4,VALID,0,VALID,90.2025,VALID,0,VALID,17.9124,VALID,253,VALID,0,
2001-08-03, 00:31:00,VALID,917.352,VALID,0,VALID,90.008,VALID,0,VALID,17.9318,VALID,230,VALID,0,
2001-08-03, 00:32:00,VALID,917.333,VALID,0,VALID,89.9686,VALID,0,VALID,17.935,VALID,230,VALID,0,
2001-08-03, 00:33:00,VALID,917.317,VALID,0,VALID,89.9851,VALID,0,VALID,17.9286,VALID,230,VALID,0,
2001-08-03, 00:34:00,VALID,917.293,VALID,0,VALID,89.9622,VALID,0,VALID,17.9385,VALID,230,VALID,0,
2001-08-03, 00:35:00,VALID,917.276,VALID,0,VALID,89.7371,VALID,0,VALID,17.9352,VALID,216,VALID,0,
2001-08-03, 00:36:00,VALID,917.254,VALID,0,VALID,89.02,VALID,0,VALID,17.9346,VALID,144,VALID,0,
2001-08-03, 00:37:00,VALID,917.244,VALID,0,VALID,88.8915,VALID,0.0169808,VALID,17.9738,VALID,62,VALID,0.347356,
2001-08-03, 00:38:00,VALID,917.242,VALID,0,VALID,89.1764,VALID,-0.0169808,VALID,17.9382,VALID,30,VALID,0.924219,
2001-08-03, 00:39:00,VALID,917.234,VALID,0,VALID,89.6812,VALID,0.0169808,VALID,17.8414,VALID,41,VALID,0.610197,
2001-08-03, 00:40:00,VALID,917.214,VALID,0,VALID,89.9584,VALID,0,VALID,17.786,VALID,61,VALID,0.448191,
2001-08-03, 00:41:00,VALID,917.226,VALID,0,VALID,90.3666,VALID,0.0169808,VALID,17.7219,VALID,62,VALID,0.0141859,
2001-08-03, 00:42:00,VALID,917.227,VALID,0,VALID,90.5599,VALID,0,VALID,17.6799,VALID,66,VALID,0.16324,
2001-08-03, 00:43:00,VALID,917.208,VALID,0,VALID,90.2801,VALID,0,VALID,17.6668,VALID,84,VALID,0.589638,
2001-08-03, 00:44:00,VALID,917.191,VALID,0,VALID,90.1212,VALID,0,VALID,17.6892,VALID,86,VALID,0.535156,
2001-08-03, 00:45:00,VALID,917.196,VALID,0,VALID,90.1097,VALID,0.0169808,VALID,17.7281,VALID,93,VALID,0.508814,
2001-08-03, 00:46:00,VALID,917.192,VALID,0,VALID,90.2394,VALID,0.0169808,VALID,17.7507,VALID,135,VALID,0.501172,
2001-08-03, 00:47:00,VALID,917.191,VALID,0,VALID,90.8752,VALID,0,VALID,17.7445,VALID,146,VALID,0.920641,
2001-08-03, 00:48:00,VALID,917.204,VALID,0,VALID,91.5606,VALID,0,VALID,17.7311,VALID,147,VALID,1.03947,
2001-08-03, 00:49:00,VALID,917.219,VALID,0,VALID,92.1748,VALID,0,VALID,17.7281,VALID,144,VALID,1.07319,
2001-08-03, 00:50:00,VALID,917.211,VALID,0,VALID,92.4177,VALID,0,VALID,17.7122,VALID,95,VALID,0.662829,
2001-08-03, 00:51:00,VALID,917.207,VALID,0,VALID,92.6173,VALID,0.0169808,VALID,17.6504,VALID,105,VALID,0.788857,
2001-08-03, 00:52:00,VALID,917.165,VALID,0,VALID,93.0764,VALID,0,VALID,17.6156,VALID,46,VALID,0.85074,
2001-08-03, 00:53:00,VALID,917.162,VALID,0,VALID,93.0586,VALID,-0.0169808,VALID,17.5314,VALID,66,VALID,0.883614,
2001-08-03, 00:54:00,VALID,917.119,VALID,0,VALID,94.0402,VALID,0,VALID,17.4828,VALID,108,VALID,1.04551,
2001-08-03, 00:55:00,VALID,917.088,VALID,0,VALID,94.3747,VALID,0.0169808,VALID,17.4897,VALID,121,VALID,0.83676,
2001-08-03, 00:56:00,VALID,917.044,VALID,0,VALID,94.4891,VALID,0.0169808,VALID,17.4505,VALID,136,VALID,0.538857,
2001-08-03, 00:57:00,VALID,917.023,VALID,0,VALID,94.6468,VALID,0.0169808,VALID,17.4443,VALID,138,VALID,0.42537,
2001-08-03, 00:58:00,VALID,916.987,VALID,0,VALID,94.6633,VALID,0.0169808,VALID,17.4277,VALID,138,VALID,0.309005,
2001-08-03, 00:59:00,VALID,916.967,VALID,0,VALID,94.6799,VALID,0.0509425,VALID,17.415,VALID,138,VALID,0,
2001-08-03, 01:00:00,VALID,916.929,VALID,0,VALID,94.4205,VALID,0.0509425,VALID,17.4117,VALID,118,VALID,0.440173,
2001-08-03, 01:01:00,VALID,916.894,VALID,0,VALID,94.1382,VALID,0,VALID,17.4023,VALID,62,VALID,0.615986,
2001-08-03, 01:02:00,VALID,916.848,VALID,0,VALID,93.8381,VALID,-0.0169808,VALID,17.3993,VALID,80,VALID,0.584961,
2001-08-03, 01:03:00,VALID,916.811,VALID,0,VALID,93.5799,VALID,0.0169808,VALID,17.3797,VALID,82,VALID,0.197163,
2001-08-03, 01:04:00,VALID,916.78,VALID,0,VALID,93.5799,VALID,-0.0169808,VALID,17.3734,VALID,37,VALID,0.354441,
2001-08-03, 01:05:00,VALID,916.75,VALID,0,VALID,93.4133,VALID,0,VALID,17.3345,VALID,319,VALID,0.451275,
2001-08-03, 01:06:00,VALID,916.719,VALID,0,VALID,93.318,VALID,0,VALID,17.3407,VALID,296,VALID,0.0898438,
2001-08-03, 01:07:00,VALID,916.681,VALID,0,VALID,92.9645,VALID,0,VALID,17.4251,VALID,301,VALID,0.00884046,
2001-08-03, 01:08:00,VALID,916.661,VALID,0,VALID,92.6021,VALID,0,VALID,17.4666,VALID,42,VALID,0.420025,
2001-08-03, 01:09:00,VALID,916.654,VALID,0,VALID,92.2549,VALID,-0.0169808,VALID,17.4961,VALID,46,VALID,0.164663,
2001-08-03, 01:10:00,VALID,916.661,VALID,0,VALID,92.0743,VALID,0.0169808,VALID,17.486,VALID,45,VALID,0.0585938,
2001-08-03, 01:11:00,VALID,916.672,VALID,0,VALID,92.1367,VALID,0,VALID,17.4602,VALID,45,VALID,0,
2001-08-03, 01:12:00,VALID,916.69,VALID,0,VALID,92.2753,VALID,-0.0169808,VALID,17.4406,VALID,45,VALID,0.00596217,
2001-08-03, 01:13:00,VALID,916.685,VALID,0,VALID,92.2714,VALID,0,VALID,17.4477,VALID,67,VALID,0.379317,
2001-08-03, 01:14:00,VALID,916.67,VALID,0,VALID,92.1252,VALID,-0.0169808,VALID,17.4641,VALID,90,VALID,0.380962,
2001-08-03, 01:15:00,VALID,916.662,VALID,0,VALID,92.1557,VALID,0,VALID,17.477,VALID,98,VALID,0.594778,
2001-08-03, 01:16:00,VALID,916.635,VALID,0,VALID,91.8213,VALID,0.0339617,VALID,17.4894,VALID,99,VALID,0.69449,
2001-08-03, 01:17:00,VALID,916.613,VALID,0,VALID,91.4195,VALID,0.0169808,VALID,17.5413,VALID,108,VALID,0.696715,
2001-08-03, 01:18:00,VALID,916.611,VALID,0,VALID,91.4754,VALID,-0.0169808,VALID,17.5672,VALID,109,VALID,0.853906,
2001-08-03, 01:19:00,VALID,916.599,VALID,0,VALID,91.6102,VALID,0,VALID,17.5609,VALID,100,VALID,1.18976,
2001-08-03, 01:20:00,VALID,916.598,VALID,0,VALID,91.6445,VALID,0.0339617,VALID,17.5506,VALID,102,VALID,1.17146,
2001-08-03, 01:21:00,VALID,916.6,VALID,0,VALID,91.5899,VALID,0.0169808,VALID,17.5314,VALID,119,VALID,0.935855,
2001-08-03, 01:22:00,VALID,916.614,VALID,0,VALID,91.7755,VALID,0,VALID,17.5024,VALID,133,VALID,0.7206,
2001-08-03, 01:23:00,VALID,916.612,VALID,0,VALID,92.3376,VALID,0.0339617,VALID,17.4862,VALID,144,VALID,1.26213,
2001-08-03, 01:24:00,VALID,916.625,VALID,0,VALID,92.7521,VALID,0.0509425,VALID,17.4636,VALID,145,VALID,1.04544,
2001-08-03, 01:25:00,VALID,916.641,VALID,0,VALID,92.9403,VALID,0,VALID,17.4447,VALID,149,VALID,0.917668,
2001-08-03, 01:26:00,VALID,916.654,VALID,0,VALID,93.0942,VALID,0,VALID,17.4062,VALID,147,VALID,0.765625,
2001-08-03, 01:27:00,VALID,916.661,VALID,0,VALID,93.2455,VALID,0.0169808,VALID,17.3601,VALID,146,VALID,0.523438,
2001-08-03, 01:28:00,VALID,916.656,VALID,0,VALID,93.5723,VALID,0.0169808,VALID,17.3379,VALID,139,VALID,0.726974,
2001-08-03, 01:29:00,VALID,916.659,VALID,0,VALID,93.7541,VALID,0,VALID,17.3029,VALID,116,VALID,0.207648,
2001-08-03, 01:30:00,VALID,916.652,VALID,0,VALID,93.8533,VALID,0,VALID,17.2706,VALID,113,VALID,0,
2001-08-03, 01:31:00,VALID,916.628,VALID,0,VALID,93.44,VALID,0.0169808,VALID,17.1961,VALID,113,VALID,0,
2001-08-03, 01:32:00,VALID,916.609,VALID,0,VALID,93.3027,VALID,0,VALID,17.1059,VALID,113,VALID,0,
2001-08-03, 01:33:00,VALID,916.592,VALID,0,VALID,93.543,VALID,-0.0169808,VALID,17.0386,VALID,113,VALID,0,
2001-08-03, 01:34:00,VALID,916.559,VALID,0,VALID,93.6664,VALID,-0.0339617,VALID,16.9899,VALID,113,VALID,0,
2001-08-03, 01:35:00,VALID,916.526,VALID,0,VALID,94.0517,VALID,-0.0509425,VALID,16.9581,VALID,113,VALID,0,
2001-08-03, 01:36:00,VALID,916.496,VALID,0,VALID,94.5934,VALID,-0.0169808,VALID,16.9546,VALID,113,VALID,0,
2001-08-03, 01:37:00,VALID,916.483,VALID,0,VALID,94.7333,VALID,-0.0169808,VALID,16.9449,VALID,113,VALID,0,
2001-08-03, 01:38:00,VALID,916.472,VALID,0,VALID,94.2119,VALID,0,VALID,16.8997,VALID,113,VALID,0,
2001-08-03, 01:39:00,VALID,916.468,VALID,0,VALID,93.9118,VALID,-0.0169808,VALID,16.8251,VALID,113,VALID,0,
2001-08-03, 01:40:00,VALID,916.477,VALID,0,VALID,94.1738,VALID,0,VALID,16.7736,VALID,113,VALID,0,
2001-08-03, 01:41:00,VALID,916.469,VALID,0,VALID,94.6341,VALID,-0.0339617,VALID,16.7646,VALID,113,VALID,0,
2001-08-03, 01:42:00,VALID,916.466,VALID,0,VALID,95.4339,VALID,0,VALID,16.7579,VALID,113,VALID,0,
2001-08-03, 01:43:00,VALID,916.448,VALID,0,VALID,95.6259,VALID,-0.0169808,VALID,16.7965,VALID,113,VALID,0.276521,
2001-08-03, 01:44:00,VALID,916.445,VALID,0,VALID,95.7022,VALID,0.0679233,VALID,16.7984,VALID,123,VALID,0.405222,
2001-08-03, 01:45:00,VALID,916.419,VALID,0,VALID,95.6386,VALID,0.0849042,VALID,16.8115,VALID,135,VALID,0.452919,
2001-08-03, 01:46:00,VALID,916.416,VALID,0,VALID,95.2813,VALID,0.0679233,VALID,16.7857,VALID,136,VALID,0.147821,
2001-08-03, 01:47:00,VALID,916.39,VALID,0,VALID,95.1376,VALID,0.0849042,VALID,16.744,VALID,135,VALID,0.15625,
2001-08-03, 01:48:00,VALID,916.377,VALID,0,VALID,95.2445,VALID,0.0679233,VALID,16.7147,VALID,125,VALID,0.414474,
2001-08-03, 01:49:00,VALID,916.37,VALID,0,VALID,95.495,VALID,0.0679233,VALID,16.7111,VALID,126,VALID,0.554888,
2001-08-03, 01:50:00,VALID,916.361,VALID,0,VALID,95.2877,VALID,0.0849042,VALID,16.7308,VALID,128,VALID,0.398633,
2001-08-03, 01:51:00,VALID,916.343,VALID,0,VALID,95.2762,VALID,0.0509425,VALID,16.7437,VALID,130,VALID,0.477179,
2001-08-03, 01:52:00,VALID,916.355,VALID,0,VALID,95.3284,VALID,0.101885,VALID,16.7633,VALID,131,VALID,0.634457,
2001-08-03, 01:53:00,VALID,916.345,VALID,0,VALID,95.2801,VALID,0.0509425,VALID,16.7726,VALID,128,VALID,0.650082,
2001-08-03, 01:54:00,VALID,916.334,VALID,0,VALID,95.1682,VALID,0.0849042,VALID,16.7857,VALID,128,VALID,0.620271,
2001-08-03, 01:55:00,VALID,916.316,VALID,0,VALID,95.1656,VALID,0.101885,VALID,16.7827,VALID,130,VALID,0.33491,
2001-08-03, 01:56:00,VALID,916.307,VALID,0,VALID,95.1783,VALID,0.0849042,VALID,16.7861,VALID,112,VALID,0.424959,
2001-08-03, 01:57:00,VALID,916.302,VALID,0,VALID,95.0563,VALID,0.101885,VALID,16.7764,VALID,106,VALID,0.576322,
2001-08-03, 01:58:00,VALID,916.297,VALID,0,VALID,94.5095,VALID,0.101885,VALID,16.7082,VALID,75,VALID,0.874414,
2001-08-03, 01:59:00,VALID,916.286,VALID,0,VALID,95.4263,VALID,0.0679233,VALID,16.6534,VALID,82,VALID,0.80222,
2001-08-03, 02:00:00,VALID,916.291,VALID,0,VALID,95.9031,VALID,0.101885,VALID,16.7244,VALID,90,VALID,0.582854,
2001-08-03, 02:01:00,VALID,916.293,VALID,0,VALID,95.6921,VALID,0.0679233,VALID,16.7835,VALID,79,VALID,0.658306,
2001-08-03, 02:02:00,VALID,916.278,VALID,0,VALID,95.4619,VALID,0.101885,VALID,16.7698,VALID,75,VALID,0.511102,
2001-08-03, 02:03:00,VALID,916.256,VALID,0,VALID,95.4632,VALID,0.0849042,VALID,16.7898,VALID,84,VALID,0.598684,
2001-08-03, 02:04:00,VALID,916.251,VALID,0,VALID,95.3513,VALID,0.0679233,VALID,16.7891,VALID,93,VALID,0.671258,
2001-08-03, 02:05:00,VALID,916.207,VALID,0,VALID,95.0606,VALID,0.101885,VALID,16.8311,VALID,97,VALID,0.704459,
2001-08-03, 02:06:00,VALID,916.207,VALID,0,VALID,94.8592,VALID,0.0509425,VALID,16.847,VALID,97,VALID,0.610352,
2001-08-03, 02:07:00,VALID,916.191,VALID,0,VALID,94.526,VALID,0.0679233,VALID,16.8696,VALID,97,VALID,0.467928,
2001-08-03, 02:08:00,VALID,916.184,VALID,0,VALID,94.2157,VALID,0.0509425,VALID,16.8797,VALID,97,VALID,0.521793,
2001-08-03, 02:09:00,VALID,916.184,VALID,0,VALID,94.2653,VALID,0.0509425,VALID,16.8668,VALID,94,VALID,0.624383,
2001-08-03, 02:10:00,VALID,916.184,VALID,0,VALID,94.1127,VALID,0.0339617,VALID,16.9028,VALID,93,VALID,0.787007,
2001-08-03, 02:11:00,VALID,916.185,VALID,0,VALID,93.9843,VALID,0.0339617,VALID,16.9251,VALID,96,VALID,0.945313,
2001-08-03, 02:12:00,VALID,916.186,VALID,0,VALID,93.8101,VALID,0.0509425,VALID,16.9929,VALID,101,VALID,0.941406,
2001-08-03, 02:13:00,VALID,916.188,VALID,0,VALID,93.2811,VALID,0.0679233,VALID,17.0771,VALID,102,VALID,0.797676,
2001-08-03, 02:14:00,VALID,916.182,VALID,0,VALID,92.5754,VALID,0.0849042,VALID,17.161,VALID,100,VALID,0.937695,
2001-08-03, 02:15:00,VALID,916.185,VALID,0,VALID,92.2282,VALID,0.0339617,VALID,17.2026,VALID,99,VALID,0.900493,
2001-08-03, 02:16:00,VALID,916.167,VALID,0,VALID,92.068,VALID,0.0339617,VALID,17.2127,VALID,96,VALID,0.840255,
2001-08-03, 02:17:00,VALID,916.153,VALID,0,VALID,92.2358,VALID,0.0509425,VALID,17.1804,VALID,105,VALID,0.867804,
2001-08-03, 02:18:00,VALID,916.144,VALID,0,VALID,92.0006,VALID,0.0509425,VALID,17.1354,VALID,113,VALID,0.68565,
2001-08-03, 02:19:00,VALID,916.141,VALID,0,VALID,92.3032,VALID,0,VALID,17.051,VALID,113,VALID,0.948808,
2001-08-03, 02:20:00,VALID,916.134,VALID,0,VALID,92.9022,VALID,0.0339617,VALID,17.0063,VALID,117,VALID,0.912418,
2001-08-03, 02:21:00,VALID,916.137,VALID,0,VALID,92.9161,VALID,0.0509425,VALID,16.9675,VALID,123,VALID,0.541867,
2001-08-03, 02:22:00,VALID,916.147,VALID,0,VALID,93.2353,VALID,0.0509425,VALID,16.9251,VALID,131,VALID,0.58457,
2001-08-03, 02:23:00,VALID,916.143,VALID,0,VALID,93.6893,VALID,0.0509425,VALID,16.9155,VALID,116,VALID,0.776521,
2001-08-03, 02:24:00,VALID,916.148,VALID,0,VALID,93.5062,VALID,0.0509425,VALID,16.8862,VALID,82,VALID,0.755345,
2001-08-03, 02:25:00,VALID,916.145,VALID,0,VALID,93.0293,VALID,0.0679233,VALID,16.812,VALID,73,VALID,0.566817,
2001-08-03, 02:26:00,VALID,916.153,VALID,0,VALID,93.0586,VALID,0.0509425,VALID,16.7252,VALID,71,VALID,0.459293,
2001-08-03, 02:27:00,VALID,916.163,VALID,0,VALID,94.0377,VALID,0.0339617,VALID,16.6929,VALID,102,VALID,0.650288,
2001-08-03, 02:28:00,VALID,916.172,VALID,0,VALID,94.5413,VALID,0.0509425,VALID,16.7054,VALID,107,VALID,0.700658,
2001-08-03, 02:29:00,VALID,916.181,VALID,0,VALID,94.2246,VALID,-0.0509425,VALID,16.7267,VALID,110,VALID,0.247796,
2001-08-03, 02:30:00,VALID,916.192,VALID,0,VALID,93.9728,VALID,-0.0339617,VALID,16.7267,VALID,110,VALID,0.028125,
2001-08-03, 02:31:00,VALID,916.184,VALID,0,VALID,93.9131,VALID,-0.0509425,VALID,16.6974,VALID,110,VALID,0.011102,
2001-08-03, 02:32:00,VALID,916.184,VALID,0,VALID,93.8482,VALID,-0.0679233,VALID,16.6718,VALID,93,VALID,0.559211,
2001-08-03, 02:33:00,VALID,916.162,VALID,0,VALID,94.3607,VALID,-0.0339617,VALID,16.6363,VALID,107,VALID,0.819079,
2001-08-03, 02:34:00,VALID,916.149,VALID,0,VALID,94.4306,VALID,-0.0849042,VALID,16.6363,VALID,119,VALID,0.371505,
2001-08-03, 02:35:00,VALID,916.163,VALID,0,VALID,94.6926,VALID,-0.0849042,VALID,16.6428,VALID,125,VALID,0.388158,
2001-08-03, 02:36:00,VALID,916.178,VALID,0,VALID,94.7358,VALID,-0.0339617,VALID,16.675,VALID,121,VALID,0.391653,
2001-08-03, 02:37:00,VALID,916.186,VALID,0,VALID,93.5278,VALID,-0.0509425,VALID,16.6522,VALID,67,VALID,0.423878,
2001-08-03, 02:38:00,VALID,916.191,VALID,0,VALID,93.1031,VALID,-0.0509425,VALID,16.5616,VALID,54,VALID,0.147852,
2001-08-03, 02:39:00,VALID,916.199,VALID,0,VALID,93.1183,VALID,-0.0339617,VALID,16.491,VALID,31,VALID,0.197163,
2001-08-03, 02:40:00,VALID,916.204,VALID,0,VALID,94.3492,VALID,-0.0169808,VALID,16.4844,VALID,351,VALID,0.194901,
2001-08-03, 02:41:00,VALID,916.212,VALID,0,VALID,94.9571,VALID,-0.0509425,VALID,16.5326,VALID,351,VALID,0,
2001-08-03, 02:42:00,VALID,916.198,VALID,0,VALID,94.8592,VALID,-0.0849042,VALID,16.5681,VALID,3,VALID,0.192229,
2001-08-03, 02:43:00,VALID,916.186,VALID,0,VALID,94.0046,VALID,-0.101885,VALID,16.5169,VALID,19,VALID,0.409539,
2001-08-03, 02:44:00,VALID,916.186,VALID,0,VALID,93.6918,VALID,-0.0679233,VALID,16.4426,VALID,19,VALID,0.554482,
2001-08-03, 02:45:00,VALID,916.189,VALID,0,VALID,93.5138,VALID,-0.0679233,VALID,16.3101,VALID,11,VALID,0.98738,
2001-08-03, 02:46:00,VALID,916.21,VALID,0,VALID,94.9787,VALID,-0.0169808,VALID,16.2584,VALID,10,VALID,0.957617,
2001-08-03, 02:47:00,VALID,916.207,VALID,0,VALID,95.8968,VALID,-0.0679233,VALID,16.3422,VALID,18,VALID,0.363692,
2001-08-03, 02:48:00,VALID,916.207,VALID,0,VALID,95.4721,VALID,-0.0509425,VALID,16.3617,VALID,18,VALID,0.383224,
2001-08-03, 02:49:00,VALID,916.213,VALID,0,VALID,95.1682,VALID,0,VALID,16.3391,VALID,28,VALID,0.372944,
2001-08-03, 02:50:00,VALID,916.184,VALID,0,VALID,95.7849,VALID,-0.0679233,VALID,16.3742,VALID,42,VALID,0.456209,
2001-08-03, 02:51:00,VALID,916.171,VALID,0,VALID,95.7823,VALID,-0.0169808,VALID,16.4392,VALID,40,VALID,0.667969,
2001-08-03, 02:52:00,VALID,916.158,VALID,0,VALID,95.6806,VALID,-0.0509425,VALID,16.4747,VALID,34,VALID,0.747122,
2001-08-03, 02:53:00,VALID,916.147,VALID,0,VALID,95.7658,VALID,-0.0169808,VALID,16.5263,VALID,40,VALID,0.947516,
2001-08-03, 02:54:00,VALID,916.134,VALID,0,VALID,95.3831,VALID,-0.0679233,VALID,16.5429,VALID,47,VALID,0.942773,
2001-08-03, 02:55:00,VALID,916.124,VALID,0,VALID,95.734,VALID,-0.0339617,VALID,16.5453,VALID,67,VALID,0.905428,
2001-08-03, 02:56:00,VALID,916.093,VALID,0,VALID,95.8052,VALID,-0.0169808,VALID,16.6654,VALID,79,VALID,0.972862,
2001-08-03, 02:57:00,VALID,916.086,VALID,0,VALID,95.1059,VALID,-0.0509425,VALID,16.7745,VALID,84,VALID,0.913651,
2001-08-03, 02:58:00,VALID,916.085,VALID,0,VALID,93.8533,VALID,-0.0169808,VALID,16.8875,VALID,81,VALID,0.656867,
2001-08-03, 02:59:00,VALID,916.078,VALID,0,VALID,93.1043,VALID,-0.0169808,VALID,16.9204,VALID,79,VALID,0.970189,
2001-08-03, 03:00:00,VALID,916.065,VALID,0,VALID,92.9352,VALID,-0.0169808,VALID,16.8782,VALID,72,VALID,1.08614,
2001-08-03, 03:01:00,VALID,916.06,VALID,0,VALID,92.8538,VALID,-0.0509425,VALID,16.8427,VALID,78,VALID,0.834535,
2001-08-03, 03:02:00,VALID,916.057,VALID,0,VALID,93.4807,VALID,-0.0339617,VALID,16.8171,VALID,88,VALID,0.792578,
2001-08-03, 03:03:00,VALID,916.063,VALID,0,VALID,94.025,VALID,-0.0339617,VALID,16.8268,VALID,101,VALID,0.962171,
2001-08-03, 03:04:00,VALID,916.075,VALID,0,VALID,93.8737,VALID,-0.0169808,VALID,16.8494,VALID,102,VALID,0.70477,
2001-08-03, 03:05:00,VALID,916.083,VALID,0,VALID,93.7338,VALID,-0.0169808,VALID,16.8354,VALID,98,VALID,0.753289,
2001-08-03, 03:06:00,VALID,916.073,VALID,0,VALID,93.9741,VALID,-0.0339617,VALID,16.8395,VALID,94,VALID,0.761308,
2001-08-03, 03:07:00,VALID,916.072,VALID,0,VALID,94.053,VALID,-0.0169808,VALID,16.8395,VALID,97,VALID,0.720395,
2001-08-03, 03:08:00,VALID,916.079,VALID,0,VALID,94.0466,VALID,-0.0169808,VALID,16.8522,VALID,104,VALID,0.717928,
2001-08-03, 03:09:00,VALID,916.069,VALID,0,VALID,94.0631,VALID,-0.0339617,VALID,16.8388,VALID,106,VALID,0.758013,
2001-08-03, 03:10:00,VALID,916.051,VALID,0,VALID,94.1254,VALID,-0.0509425,VALID,16.8461,VALID,107,VALID,0.667188,
2001-08-03, 03:11:00,VALID,916.032,VALID,0,VALID,93.6944,VALID,-0.0339617,VALID,16.8104,VALID,101,VALID,0.350946,
2001-08-03, 03:12:00,VALID,916.031,VALID,0,VALID,94.3264,VALID,-0.0339617,VALID,16.7846,VALID,102,VALID,0.569079,
2001-08-03, 03:13:00,VALID,916.012,VALID,0,VALID,94.362,VALID,-0.0339617,VALID,16.8106,VALID,59,VALID,0.345806,
2001-08-03, 03:14:00,VALID,915.989,VALID,0,VALID,93.7122,VALID,-0.0509425,VALID,16.7783,VALID,8,VALID,0,
2001-08-03, 03:15:00,VALID,915.982,VALID,0,VALID,93.4172,VALID,-0.0509425,VALID,16.7069,VALID,8,VALID,0.0108964,
2001-08-03, 03:16:00,VALID,915.988,VALID,0,VALID,93.6435,VALID,-0.0339617,VALID,16.6908,VALID,8,VALID,0,
2001-08-03, 03:17:00,VALID,915.977,VALID,0,VALID,93.8495,VALID,-0.0679233,VALID,16.6781,VALID,8,VALID,0,
2001-08-03, 03:18:00,VALID,915.963,VALID,0,VALID,94.0504,VALID,-0.0849042,VALID,16.6714,VALID,8,VALID,0,
2001-08-03, 03:19:00,VALID,915.946,VALID,0,VALID,94.3009,VALID,-0.0849042,VALID,16.6882,VALID,27,VALID,0.165502,
2001-08-03, 03:20:00,VALID,915.957,VALID,0,VALID,94.5107,VALID,-0.0509425,VALID,16.6779,VALID,48,VALID,0.3456,
2001-08-03, 03:21:00,VALID,915.961,VALID,0,VALID,94.3848,VALID,-0.0849042,VALID,16.6815,VALID,51,VALID,0.0285773,
2001-08-03, 03:22:00,VALID,915.978,VALID,0,VALID,94.1687,VALID,-0.0339617,VALID,16.6232,VALID,51,VALID,0.13528,
2001-08-03, 03:23:00,VALID,915.986,VALID,0,VALID,94.4446,VALID,-0.0509425,VALID,16.6004,VALID,48,VALID,0.407689,
2001-08-03, 03:24:00,VALID,915.982,VALID,0,VALID,94.3187,VALID,-0.0339617,VALID,16.5616,VALID,48,VALID,0.327508,
2001-08-03, 03:25:00,VALID,915.983,VALID,0,VALID,94.5387,VALID,-0.0169808,VALID,16.5227,VALID,41,VALID,0.47476,
2001-08-03, 03:26:00,VALID,915.971,VALID,0,VALID,94.8083,VALID,-0.0339617,VALID,16.536,VALID,29,VALID,0.587109,
2001-08-03, 03:27:00,VALID,915.963,VALID,0,VALID,94.9024,VALID,-0.0339617,VALID,16.5294,VALID,26,VALID,0.822574,
2001-08-03, 03:28:00,VALID,915.943,VALID,0,VALID,95.3424,VALID,-0.0509425,VALID,16.5879,VALID,34,VALID,1.00822,
2001-08-03, 03:29:00,VALID,915.933,VALID,0,VALID,94.9367,VALID,-0.0679233,VALID,16.6619,VALID,41,VALID,0.977385,
2001-08-03, 03:30:00,VALID,915.929,VALID,0,VALID,94.7193,VALID,-0.0509425,VALID,16.7134,VALID,39,VALID,0.550781,
2001-08-03, 03:31:00,VALID,915.925,VALID,0,VALID,94.4815,VALID,-0.0679233,VALID,16.7588,VALID,37,VALID,0.00493421,
2001-08-03, 03:32:00,VALID,915.922,VALID,0,VALID,94.334,VALID,-0.0679233,VALID,16.7779,VALID,37,VALID,0,
2001-08-03, 03:33:00,VALID,915.915,VALID,0,VALID,94.3187,VALID,-0.0679233,VALID,16.8076,VALID,37,VALID,0,
2001-08-03, 03:34:00,VALID,915.902,VALID,0,VALID,94.4217,VALID,-0.0509425,VALID,16.8268,VALID,37,VALID,0,